Kuchera_Ratio
0.0 0.0 0.0 0.0 0.0 0.0 0.0 0.0 0.0 0.0 0.0 0.0 0.0 0.0 0.0 0.0 0.0 0.0 0.0 0.0 0.0 0.0 0.0 0.0 0.0 0.0 0.0 0.0 0.0 0.0 0.0 0.0 0.5 0.0 0.0 0.0 0.0 0.0 0.0 7.4 9.0 9.7 10.7 10.1
0.0 0.0 0.0 0.0 0.0 0.0 0.0 0.0 0.0 0.0 0.0 0.0 0.0 0.0 0.0 0.0 0.0 0.0 0.0 0.0 0.0 0.0 0.0 0.0 0.0 0.0 0.0 0.0 0.0 0.0 0.0 0.0 4.8 0.0 0.0 0.0 0.0 0.0 0.0 2.2 3.6 10.9 12.6 8.8
0.0 0.0 0.0 0.0 0.0 0.0 0.0 0.0 0.0 0.0 0.0 0.0 0.0 0.0 0.0 0.0 0.0 0.0 0.0 0.0 0.0 0.0 0.0 0.0 0.0 0.0 0.0 0.0 0.0 0.0 0.0 0.0 0.0 6.6 1.1 0.0 0.8 0.7 0.0 2.5 9.7 10.3 7.2 2.1
0.0 0.0 0.0 0.0 0.0 0.0 0.0 0.0 0.0 0.0 0.0 0.0 0.0 0.0 0.0 0.0 0.0 0.0 0.0 0.0 0.0 0.0 0.0 0.0 0.0 0.0 0.0 0.0 0.0 0.0 0.0 0.9 1.2 0.0 0.0 0.0 0.0 1.1 1.1 5.1 3.6 6.0 1.7 3.2
0.0 0.0 0.0 0.0 0.0 0.0 0.0 0.0 0.0 0.0 0.0 0.0 0.0 0.0 0.0 0.0 0.0 0.0 0.0 0.0 0.0 0.0 0.0 0.0 0.0 0.0 0.0 0.0 0.0 0.0 0.0 2.3 0.9 3.8 1.8 2.4 2.3 1.1 0.8 0.7 0.5 3.7 2.1 3.7
0.0 0.0 0.0 0.0 0.0 0.0 0.0 0.0 0.0 0.0 0.0 0.0 0.0 0.0 0.0 0.0 0.0 0.0 0.0 0.0 0.0 0.0 0.0 0.0 0.0 0.0 0.0 0.0 0.0 0.0 0.0 3.4 4.2 7.3 6.3 3.2 6.5 0.0 0.0 0.0 0.0 0.0 2.7 0.0
0.0 0.0 0.0 0.0 0.0 0.0 0.0 0.0 0.0 0.0 0.0 0.0 0.0 0.0 0.0 0.0 0.0 0.0 0.0 0.0 0.0 0.0 0.0 0.0 0.0 0.0 0.0 0.0 0.0 0.0 0.2 4.5 4.9 12.3 7.9 14.5 0.0 0.0 0.0 0.0 0.0 0.0 0.0 0.0
0.0 0.0 0.0 0.0 0.0 0.0 0.0 0.0 0.0 0.0 0.0 0.0 0.0 0.0 0.0 0.0 0.0 0.0 0.0 0.0 0.0 0.0 0.0 0.0 0.1 0.0 0.0 0.0 0.0 0.0 0.0 4.4 6.5 10.7 11.1 5.3 0.0 0.0 0.0 0.0 2.2 0.0 0.0 0.0
0.0 0.0 0.0 0.0 0.0 0.0 0.0 0.0 0.0 0.0 0.0 0.0 0.0 0.0 0.0 0.0 0.0 0.0 0.0 0.0 0.0 0.0 0.0 0.0 3.0 8.8 3.3 2.0 0.2 0.2 2.2 2.6 6.9 11.3 13.3 13.9 0.0 0.0 0.0 0.0 6.6 0.0 0.0 0.0
0.0 0.0 0.0 0.0 0.0 0.0 0.0 0.0 0.0 0.0 0.0 0.0 0.0 0.0 0.0 0.0 0.0 0.0 0.0 0.0 0.0 0.0 0.0 3.4 4.3 4.2 3.7 7.9 4.2 1.7 2.1 4.9 8.5 8.1 12.3 8.8 0.0 0.0 0.0 8.1 6.6 0.0 0.0 0.0
0.0 0.0 0.0 0.0 0.0 0.0 0.0 0.0 0.0 0.0 0.0 0.0 0.0 0.0 0.0 0.0 0.0 0.0 0.0 0.0 0.0 0.0 2.8 3.9 3.6 5.6 4.3 6.5 2.6 2.3 2.5 3.3 8.1 12.4 13.3 12.9 0.0 0.0 0.0 0.0 0.0 0.0 0.0 0.0
0.0 0.0 0.0 0.0 0.0 0.0 0.0 0.0 0.0 0.0 0.0 0.0 0.0 0.0 0.0 0.0 0.0 0.0 0.0 0.0 0.0 0.0 0.0 2.1 4.2 5.0 6.1 5.6 8.8 0.0 7.1 0.0 3.7 4.1 6.1 0.0 0.0 0.0 0.0 0.0 0.0 0.0 0.0 0.0
0.0 0.0 0.0 0.0 0.0 0.0 0.0 0.0 0.0 0.0 0.0 0.0 0.0 0.0 0.0 0.0 0.0 0.0 0.0 0.0 0.0 0.0 0.0 0.0 0.0 3.8 2.3 7.1 7.5 2.0 0.7 0.0 0.9 0.9 0.0 0.0 0.0 0.0 0.0 0.0 0.0 0.0 0.0 0.0
0.0 0.0 0.0 0.0 0.0 0.0 0.0 0.0 0.0 0.0 0.0 0.0 0.0 0.0 0.0 0.0 0.0 0.0 0.0 0.0 0.0 0.0 0.0 0.0 0.0 1.1 0.0 3.4 0.5 3.1 0.0 0.0 1.3 0.8 0.0 0.0 0.0 0.0 0.0 0.0 0.0 0.0 0.0 0.0
0.0 0.0 0.0 0.0 0.0 0.0 0.0 0.0 0.0 0.0 0.0 0.0 0.0 0.0 0.0 0.0 0.0 0.0 0.0 0.0 0.0 0.0 0.0 0.2 1.7 0.0 1.1 2.4 3.6 2.8 0.0 0.5 1.9 0.8 0.0 0.0 0.0 0.0 0.0 0.0 0.0 0.0 0.0 0.0
0.0 0.0 0.0 0.0 0.0 0.0 0.0 0.0 0.0 0.0 0.0 0.0 0.0 0.0 0.0 0.0 0.0 0.0 0.0 0.0 0.0 0.0 0.0 0.0 0.0 0.0 0.0 3.3 6.5 0.0 0.0 0.0 0.0 0.0 0.0 0.0 0.0 0.0 0.0 0.0 0.0 0.0 0.0 0.0
0.0 0.0 0.0 0.0 0.0 0.0 0.0 0.0 0.0 0.0 0.0 0.0 0.3 0.0 0.0 0.0 0.0 0.0 0.0 0.0 0.0 0.0 0.0 0.0 0.0 0.0 0.0 3.2 3.5 0.0 0.0 0.0 0.0 0.0 0.0 0.0 0.0 0.0 0.0 0.0 0.0 0.0 0.0 0.0
0.0 0.0 0.0 0.0 0.0 0.0 0.0 0.0 0.0 0.0 0.0 0.0 3.5 4.0 0.0 0.0 0.0 0.0 0.2 0.0 0.0 0.0 0.0 0.0 0.9 0.5 0.0 3.7 0.0 0.0 0.0 0.0 0.0 0.0 0.0 0.0 0.0 0.0 0.0 0.0 0.0 0.0 0.6 1.5
0.0 0.0 0.0 0.0 0.0 0.0 0.0 0.0 0.0 0.0 0.0 0.0 3.1 5.1 4.9 0.0 1.7 0.5 1.1 1.3 5.4 1.3 4.6 3.5 2.4 5.1 5.3 1.2 2.7 1.0 0.0 0.0 1.1 0.0 0.0 0.0 0.0 0.0 0.0 0.0 0.0 2.5 2.4 3.3
0.0 0.0 0.0 1.3 0.0 0.0 0.0 0.0 0.0 0.0 0.0 1.9 3.9 2.7 4.8 0.0 1.4 3.4 1.5 4.7 7.1 8.1 6.9 4.1 7.5 6.9 0.0 0.5 1.3 1.9 0.7 0.0 0.0 4.3 3.3 0.2 1.2 1.8 0.0 0.0 1.4 2.3 2.3 3.8
0.0 0.0 2.2 0.0 0.0 0.0 0.0 3.7 4.3 5.0 5.2 5.6 5.4 4.0 4.4 0.0 6.1 6.7 4.8 7.9 7.8 13.2 11.4 9.1 12.1 11.3 5.1 3.0 2.3 0.2 0.0 0.0 0.0 0.0 0.0 0.0 0.0 1.1 1.2 0.6 0.4 0.7 2.1 3.7
0.0 0.0 0.0 0.0 0.0 4.5 4.7 7.9 8.3 7.7 8.4 7.5 7.7 6.3 3.1 5.5 0.5 5.4 7.9 10.5 11.1 14.6 11.8 12.8 14.7 11.0 6.1 3.8 1.6 0.6 0.0 0.0 0.0 0.0 0.0 0.2 1.3 1.4 2.8 3.4 3.8 3.9 3.9 4.3
0.0 0.0 2.8 2.3 6.7 9.1 11.1 13.7 11.3 10.9 8.1 6.9 6.9 7.5 6.6 5.7 5.0 8.7 10.2 13.5 14.4 12.4 13.6 15.3 11.8 6.7 5.5 3.9 1.9 0.1 0.0 0.0 0.0 0.1 1.3 2.0 2.7 1.6 3.1 4.7 4.5 4.9 5.7 5.6
0.9 3.8 9.3 10.8 12.4 10.5 10.3 10.5 10.9 6.9 7.3 7.1 6.9 8.9 9.1 10.8 11.0 12.1 14.2 14.5 14.1 15.3 16.6 15.4 13.0 6.4 4.4 3.5 2.5 1.0 0.8 0.5 1.7 3.0 3.4 4.0 4.9 5.3 5.2 5.8 6.6 7.8 7.9 7.2
4.8 5.8 11.6 12.6 11.1 10.5 7.7 7.5 6.9 6.4 5.4 6.9 8.3 10.5 10.8 12.9 13.6 14.0 15.9 15.7 17.2 16.1 16.7 13.0 6.4 6.1 4.9 3.6 1.8 2.2 2.4 2.9 4.4 4.5 5.3 5.2 5.5 6.4 7.0 6.8 7.4 7.7 8.0 8.1
7.1 10.0 13.0 11.9 11.1 11.8 9.5 7.7 7.5 5.3 6.5 8.0 8.8 13.1 13.7 13.6 14.2 16.2 16.0 16.6 16.2 14.0 13.1 6.9 7.7 5.6 4.0 2.5 2.6 3.7 4.5 5.0 5.2 4.8 5.5 6.2 6.9 8.3 9.5 9.4 9.2 8.3 8.4 9.9
9.5 12.3 11.2 10.9 11.3 9.5 8.6 8.1 7.9 3.9 7.9 12.1 12.3 13.4 14.1 15.0 16.2 16.9 16.1 16.0 12.7 8.5 6.8 8.0 6.3 4.1 3.5 3.6 4.5 4.6 3.9 4.1 4.8 5.5 5.7 7.1 7.5 9.5 11.3 11.4 10.3 9.7 9.6 9.0